SCP
-0 -0 -0 0 0 0 0 0 0 0 0 0 0 0 0 0 0 0 0 0 0 0 0 0 0 0 0
0 -0 0 0 0 0 0 0 0 0 0 0 0 0 0 0 0 0 0 0 0 0 0 0 0 0 0
0 0 0 0 0 0 0 0 0 0 0 0 0 0 0 0 0 0 0 0 0 0 0 0 0 0 0
0 0 0 0 0 0 0 0 0 0 0 0 0 0 0 0 0 0 0 0 0 0 0 0 0 0 0
0 0 0 0 0 0 0 0 0 0 0 0 0 0 0 0 0 0 0 0 0 0 0 0 0 0 0
0 0 0 0 0 0 0 0 0 0 0 0 0 0 0 0 0 0 0 0 0 0 0 0 0 0 0
0 0 0 0 0 0 0 0 0 0 0 0 0 0 0 0 0 0 0 0 0 0 0 0 0 0 0
0 0 0 0 0 0 0 0 0 0 0 0 0 0 0 0 0 0 0 0 0 0 0 0 0 0 0
0 0 0 0 0 0 0 0 0 0 0 0 0 0 0 0 0 0 0 0 0 0 0 0 0 0 0
0 0 0 0 0 0 0 0 0 0 0 0 0 0 0 0 0 0 0 0 0 0 0 0 0 0 0
0 0 0 0 0 0 0 0 0 0 0 0 0 0 0 0 0 0 0 0 0 0 0 0 0 0 0
0 0 0 0 0 0 0 0 0 0 0 0 0 0 0 0 0 0 0 0 0 0 0 0 0 0 0
0 0 0 0 0 0 0 0 0 0 0 0 0 0 0 0 0 0 0 0 0 0 0 0 0 0 0
0 0 0 0 0 0 0 0 0 0 0 0 0 0 0 0 0 0 0 0 0 0 0 0 0 0 0
0 0 0 0 0 0 0 0 0 0 0 0 0 0 0 0 0 0 0 0 0 0 0 0 0 0 0
0 0 0 0 0 0 0 0 0 0 0 0 0 0 0 0 0 0 0 0 0 0 0 0 0 0 0
Wind_Speed_500mb
10 8 7 7 6 5 3 2 2 4 8 10 11 10 11 10 11 11 12 14 16 19 21 22 20 17 12
10 6 3 2 1 1 1 2 3 5 7 10 11 10 13 15 14 14 14 16 17 19 18 19 19 14 12
6 6 3 2 1 2 3 3 4 5 9 13 13 16 16 16 16 16 17 18 17 16 17 18 17 9 9
8 1 3 2 1 2 7 5 3 3 9 11 15 14 14 14 14 13 18 21 23 15 19 20 15 15 14
6 2 8 1 1 3 5 6 2 6 6 7 10 20 17 21 14 16 20 22 26 27 26 21 13 17 18
8 3 9 8 8 8 10 13 6 8 10 14 20 23 26 23 19 15 22 22 22 21 23 23 18 11 18
10 12 10 13 17 15 12 14 9 15 16 17 19 28 26 24 21 19 20 23 27 28 28 30 28 25 27
17 13 18 18 15 13 14 22 20 19 24 24 28 28 30 25 20 29 29 33 34 29 27 27 26 24 25
20 18 15 16 22 21 15 21 27 29 30 32 32 31 29 27 29 30 31 29 24 20 21 21 23 25 24
18 17 18 19 22 23 29 27 29 30 31 36 37 37 37 35 32 27 27 25 25 24 22 23 24 29 28
20 20 19 20 23 27 31 31 31 32 33 32 30 29 32 26 17 27 26 28 31 29 26 17 20 23 18
24 22 22 23 26 30 33 33 34 34 31 24 22 23 20 20 22 21 25 24 25 26 19 14 20 18 14
23 19 18 21 31 30 27 29 26 20 13 10 11 12 14 19 23 25 25 24 18 27 23 5 12 12 11
22 19 21 28 28 26 24 18 10 6 5 7 11 13 16 21 25 28 28 25 22 30 19 17 14 11 5
22 21 22 23 21 18 9 4 5 5 8 12 15 18 21 24 24 22 21 20 14 20 14 9 8 4 12
20 21 20 20 14 7 3 4 6 8 11 15 17 20 21 22 21 20 19 17 15 16 16 10 14 12 8
Wind_Direction_500mb
111 105 107 105 102 96 120 10 82 12 346 346 345 341 340 342 340 332 335 337 339 342 343 346 346 348 0
131 115 102 108 101 77 55 20 355 335 328 329 324 333 329 323 322 324 328 326 330 335 335 340 348 346 356
125 108 106 84 318 301 320 329 339 341 324 332 328 329 320 315 313 314 316 313 316 331 331 339 3 5 358
185 249 216 54 125 11 7 347 358 269 250 290 307 318 325 317 329 326 328 322 332 333 311 313 320 321 318
192 41 357 269 252 206 225 282 319 318 323 333 323 327 320 325 342 327 314 324 333 342 346 349 339 304 305
223 211 217 291 267 295 290 300 300 294 300 311 327 330 341 349 349 331 327 325 316 310 307 306 299 283 283
220 207 216 241 271 283 255 259 286 299 290 301 296 298 304 310 315 318 315 313 314 314 308 305 304 296 289
230 245 216 231 241 250 266 269 263 264 273 283 282 287 294 298 281 295 307 305 310 316 323 322 313 309 297
222 226 234 222 227 231 249 257 273 264 268 273 277 283 285 291 286 293 299 302 304 311 323 345 327 306 301
232 232 240 241 250 255 263 275 273 276 277 275 277 282 285 285 286 292 298 299 301 298 294 289 285 293 294
241 252 261 263 265 271 281 285 285 283 282 280 278 282 286 295 300 287 288 293 299 298 299 319 306 293 292
240 252 262 269 275 282 286 287 290 292 291 288 288 292 301 299 296 298 298 305 311 307 318 321 283 288 283
240 250 265 277 280 283 289 295 299 296 302 321 324 313 307 304 300 303 306 308 303 297 317 239 242 284 276
236 239 245 265 279 289 301 310 327 348 351 335 325 324 322 315 314 308 307 307 300 297 299 232 236 247 247
229 245 258 265 271 288 309 352 18 358 339 331 324 318 315 314 315 322 317 313 310 297 305 254 232 191 209
232 246 251 257 268 289 309 308 311 321 322 324 325 325 324 326 325 326 325 318 305 295 289 279 249 251 223
Wind_Speed_850mb
10 8 7 7 6 5 3 2 2 4 8 10 11 10 11 10 11 11 12 14 16 19 21 22 20 17 12
10 6 3 2 1 1 1 2 3 5 7 10 11 10 13 15 14 14 14 16 17 19 18 19 19 14 12
6 6 3 2 1 2 3 3 4 5 9 13 13 16 16 16 16 16 17 18 17 16 17 18 17 9 9
8 1 3 2 1 2 7 5 3 3 9 11 15 14 14 14 14 13 18 21 23 15 19 20 15 15 14
6 2 8 1 1 3 5 6 2 6 6 7 10 20 17 21 14 16 20 22 26 27 26 21 13 17 18
8 3 9 8 8 8 10 13 6 8 10 14 20 23 26 23 19 15 22 22 22 21 23 23 18 11 18
10 12 10 13 17 15 12 14 9 15 16 17 19 28 26 24 21 19 20 23 27 28 28 30 28 25 27
17 13 18 18 15 13 14 22 20 19 24 24 28 28 30 25 20 29 29 33 34 29 27 27 26 24 25
20 18 15 16 22 21 15 21 27 29 30 32 32 31 29 27 29 30 31 29 24 20 21 21 23 25 24
18 17 18 19 22 23 29 27 29 30 31 36 37 37 37 35 32 27 27 25 25 24 22 23 24 29 28
20 20 19 20 23 27 31 31 31 32 33 32 30 29 32 26 17 27 26 28 31 29 26 17 20 23 18
24 22 22 23 26 30 33 33 34 34 31 24 22 23 20 20 22 21 25 24 25 26 19 14 20 18 14
23 19 18 21 31 30 27 29 26 20 13 10 11 12 14 19 23 25 25 24 18 27 23 5 12 12 11
22 19 21 28 28 26 24 18 10 6 5 7 11 13 16 21 25 28 28 25 22 30 19 17 14 11 5
22 21 22 23 21 18 9 4 5 5 8 12 15 18 21 24 24 22 21 20 14 20 14 9 8 4 12
20 21 20 20 14 7 3 4 6 8 11 15 17 20 21 22 21 20 19 17 15 16 16 10 14 12 8
Wind_Direction_850mb
111 105 107 105 102 96 120 10 82 12 346 346 345 341 340 342 340 332 335 337 339 342 343 346 346 348 0
131 115 102 108 101 77 55 20 355 335 328 329 324 333 329 323 322 324 328 326 330 335 335 340 348 346 356
125 108 106 84 318 301 320 329 339 341 324 332 328 329 320 315 313 314 316 313 316 331 331 339 3 5 358
185 249 216 54 125 11 7 347 358 269 250 290 307 318 325 317 329 326 328 322 332 333 311 313 320 321 318
192 41 357 269 252 206 225 282 319 318 323 333 323 327 320 325 342 327 314 324 333 342 346 349 339 304 305
223 211 217 291 267 295 290 300 300 294 300 311 327 330 341 349 349 331 327 325 316 310 307 306 299 283 283
220 207 216 241 271 283 255 259 286 299 290 301 296 298 304 310 315 318 315 313 314 314 308 305 304 296 289
230 245 216 231 241 250 266 269 263 264 273 283 282 287 294 298 281 295 307 305 310 316 323 322 313 309 297
222 226 234 222 227 231 249 257 273 264 268 273 277 283 285 291 286 293 299 302 304 311 323 345 327 306 301
232 232 240 241 250 255 263 275 273 276 277 275 277 282 285 285 286 292 298 299 301 298 294 289 285 293 294
241 252 261 263 265 271 281 285 285 283 282 280 278 282 286 295 300 287 288 293 299 298 299 319 306 293 292
240 252 262 269 275 282 286 287 290 292 291 288 288 292 301 299 296 298 298 305 311 307 318 321 283 288 283
240 250 265 277 280 283 289 295 299 296 302 321 324 313 307 304 300 303 306 308 303 297 317 239 242 284 276
236 239 245 265 279 289 301 310 327 348 351 335 325 324 322 315 314 308 307 307 300 297 299 232 236 247 247
229 245 258 265 271 288 309 352 18 358 339 331 324 318 315 314 315 322 317 313 310 297 305 254 232 191 209
232 246 251 257 268 289 309 308 311 321 322 324 325 325 324 326 325 326 325 318 305 295 289 279 249 251 223